Date,TemperatureHighF,TemperatureAvgF,TemperatureLowF,DewpointHighF,DewpointAvgF,DewpointLowF,HumidityHigh,HumidityAvg,HumidityLow,PressureMaxIn,PressureMinIn,WindSpeedMaxMPH,WindSpeedAvgMPH,GustSpeedMaxMPH,PrecipitationSumIn
2013-2-1,49.6,44.7,38.5,41.5,38.3,35.0,91,79,61,30.02,29.88,18,10,33,0.00
2013-2-2,57.1,50.9,43.8,47.6,39.5,31.1,86,66,43,29.93,29.75,22,11,38,0.00
2013-2-3,67.3,61.6,56.7,48.2,45.7,43.7,71,56,47,29.90,29.73,29,19,47,0.00
2013-2-4,62.4,53.4,43.6,47.4,44.2,42.0,96,73,51,30.08,29.91,22,9,36,0.03
2013-2-5,47.4,43.7,40.5,42.8,40.5,35.8,96,89,66,30.15,29.91,14,6,20,0.07
2013-2-6,57.2,47.4,41.8,47.9,44.3,41.0,97,89,70,29.90,29.72,12,4,16,0.00
2013-2-7,63.6,57.2,51.7,49.3,46.4,43.9,82,68,49,29.76,29.67,21,9,36,0.02
2013-2-8,59.6,50.8,47.2,45.3,43.5,40.6,90,77,52,29.77,29.64,22,9,37,0.34
2013-2-9,55.5,49.1,45.5,46.1,44.0,42.1,95,83,62,29.98,29.77,15,6,26,0.35
2013-2-10,49.7,46.9,44.7,47.6,44.4,42.9,96,91,84,29.98,29.84,13,4,20,0.06
2013-2-11,46.8,42.6,39.9,44.0,41.2,37.8,97,95,88,30.08,29.83,14,6,22,0.13
2013-2-12,51.4,42.4,37.6,41.6,38.2,34.4,93,85,64,30.18,30.08,8,3,14,0.00
2013-2-13,50.4,44.7,40.8,44.1,41.2,38.2,95,88,75,30.14,30.07,7,4,10,0.00
2013-2-14,44.8,43.8,43.0,43.6,42.6,41.6,97,96,91,30.07,29.84,12,6,17,0.00
2013-2-15,44.7,42.3,38.8,43.9,41.0,35.7,97,95,88,30.08,29.78,18,12,30,0.27
2013-2-16,39.0,38.2,37.2,36.1,33.9,31.5,92,84,76,30.19,30.08,10,5,20,0.00
2013-2-17,39.8,38.9,37.6,35.0,33.5,32.1,84,81,77,30.19,30.14,12,5,20,0.00
2013-2-18,42.1,39.7,36.7,35.4,34.2,32.4,90,81,73,30.18,30.13,9,6,15,0.00
2013-2-19,43.7,39.4,34.8,36.9,34.6,32.2,93,83,70,30.16,29.85,18,9,28,0.05
2013-2-20,42.6,39.7,37.9,39.6,37.7,35.8,96,92,87,30.16,29.82,15,6,22,0.11
2013-2-21,47.1,41.5,37.9,40.6,37.6,33.7,92,86,76,30.16,29.99,6,3,9,0.00
2013-2-22,45.5,43.3,41.2,43.9,41.4,38.4,97,93,84,30.00,29.73,10,4,17,0.07
2013-2-23,46.6,45.0,43.6,45.8,44.2,42.8,98,97,96,30.15,29.75,6,2,10,0.01
2013-2-24,49.8,44.6,42.1,46.1,43.2,41.4,98,95,84,30.26,30.15,13,5,20,0.00
2013-2-25,43.2,42.2,40.8,42.7,41.6,40.3,98,98,98,30.27,30.20,10,6,17,0.00
2013-2-26,44.8,43.7,43.0,44.3,43.2,42.5,98,98,98,30.20,30.08,14,6,20,0.06
2013-2-27,45.6,43.2,41.3,45.1,42.5,39.2,99,97,92,30.10,30.06,12,4,20,0.00
2013-2-28,43.5,41.3,38.6,41.9,39.3,34.3,98,93,84,30.25,30.08,16,8,26,0.09